Regional Weather Roundup
Issued by NWS

Home | Current Version | Previous Version | Graphics & Text | Print | Product List | Glossary On
Versions: 1 2 3 4 5 6 7 8 9 10 11 12 13 14 15 16 17 18 19 20 21 22 23 24 25 26 27 28 29 30 31 32 33 34 35 36 37 38 39 40 41 42 43 44 45 46 47 48 49 50
000
ASUS45 KCYS 261010
RWRWY

WYOMING REGIONAL WEATHER ROUNDUP
NATIONAL WEATHER SERVICE CHEYENNE WY
300 AM MST MON JAN 26 2015

NOTE:  "FAIR" INDICATES FEW OR NO CLOUDS BELOW 12,000 FEET
WITH NO SIGNIFICANT WEATHER AND/OR OBSTRUCTIONS TO VISIBILITY.

WYZ001-261100-
YELLOWSTONE NATIONAL PARK

CITY           SKY/WX    TMP DP  RH WIND       PRES   REMARKS
LK YELLOWSTONE   N/A     20  18  92 CALM      30.46R
W YELLOWSTONE  NOT AVBL

$$
WYZ002>013-054>058-071-098>099-261100-
NORTHERN WYOMING

CITY           SKY/WX    TMP DP  RH WIND       PRES   REMARKS
JACKSON        CLOUDY    25  25 100 N6        30.47R VSB 1/4 WCI  18
CODY           FAIR      55  23  28 W8        30.19S
GREYBULL       FAIR      19  18  95 CALM      30.23S
WORLAND        FAIR      21  19  92 S3        30.21F
SHERIDAN       FAIR      35  26  69 SW6       30.09F WCI  30
BUFFALO        FAIR      44  27  51 W10       30.13F
GILLETTE       FAIR      42  29  59 W12       30.09F
HULETT           N/A    N/A N/A N/A MISG        N/A
NEWCASTLE      FAIR      36  30  80 N10       30.09F WCI  28

$$
WYZ014>020-022>026-101>103-261100-
CENTRAL WYOMING

CITY           SKY/WX    TMP DP  RH WIND       PRES   REMARKS
BIG PINEY      FAIR      29  22  75 NW10      30.38R WCI  20
PINEDALE       FAIR      21  21 100 E8        30.39R WCI  12
DUBOIS         FAIR      37  23  56 NW12      30.34F WCI  30
LANDER         FAIR      40  25  55 CALM      30.24S
RIVERTON       FAIR      30  24  78 CALM      30.26S
CASPER         FAIR      39  26  59 CALM      30.22R
DOUGLAS        FAIR      40  28  62 NW8       30.18F WCI  34

$$
WYZ021-027>030-104>119-261100-
SOUTHERN WYOMING

CITY           SKY/WX    TMP DP  RH WIND       PRES   REMARKS
EVANSTON       FAIR      30  27  88 SW5       30.43R WCI  25
KEMMERER       FAIR      27  27 100 NW5       30.41S WCI  21
FORT BRIDGER   FAIR      39  28  65 W12       30.41S WCI  32
ROCK SPRINGS   FAIR      30  25  81 W9        30.37R WCI  22
DIXON          FAIR      29  24  79 E8        30.42S WCI  22
RAWLINS        FAIR      38  25  59 SW10      30.34F WCI  31
SARATOGA       FAIR      28  23  80 MISG      30.37S
LARAMIE        FAIR      33  22  63 W5        30.28F WCI  29
CHEYENNE       FAIR      47  23  38 NW13      30.21R
TORRINGTON     FAIR      41  29  62 NW14      30.13S
PINE BLUFFS    FAIR      45  28  53 NW21      30.15F

$$


USA.gov is the U.S. government's official web portal to all federal, state and local government web resources and services.